Lapse_Rate
7.0 6.5 6.5 6.5 6.5 6.5 6.5 6.5 6.5 6.5 6.5 6.5 6.5 6.5 6.5 6.9 7.0 7.0 7.2 7.4 7.6 7.8 8.4 8.6 8.3 8.4 8.8 8.8 8.9 9.0 9.0 7.9 6.5 5.6 5.9 4.5 4.2 6.4 8.0 9.2 9.0 9.1 9.0 9.1
6.5 6.5 6.5 6.5 6.5 6.5 6.5 6.5 6.5 6.5 6.5 6.5 6.5 6.5 6.5 6.7 6.9 7.1 7.2 7.3 7.5 7.8 8.1 8.5 8.6 8.8 8.7 8.7 8.8 8.0 6.4 6.6 6.1 5.7 4.4 4.2 5.7 7.8 8.9 9.3 9.2 8.8 8.7 8.8
6.5 6.5 6.5 6.5 6.5 6.5 6.5 6.5 6.5 6.5 6.5 6.5 6.5 6.5 6.5 6.5 7.0 7.3 7.5 7.7 7.8 7.8 7.9 8.2 8.5 8.3 8.6 8.5 7.9 7.1 7.3 6.5 5.8 5.7 6.0 6.0 7.1 7.5 8.5 8.1 8.2 8.4 9.4 9.3
6.5 6.6 6.5 6.5 6.5 6.5 6.5 6.5 6.5 6.5 6.5 6.5 6.5 6.5 6.5 6.5 6.5 6.7 7.1 7.4 7.6 7.9 8.1 8.3 8.4 8.5 8.0 8.3 8.2 9.1 8.2 7.0 6.1 5.6 6.3 6.6 8.3 8.3 8.2 8.2 8.5 9.1 9.4 9.3
6.5 6.5 6.5 6.5 6.5 6.5 6.5 6.5 6.5 6.5 6.5 6.5 6.5 6.5 6.5 6.5 6.5 6.5 6.9 7.3 7.6 7.9 8.1 8.2 8.4 8.6 8.9 9.1 9.1 8.7 7.5 6.3 5.9 6.5 6.7 8.4 8.3 8.3 8.6 8.4 8.3 8.1 9.1 9.3
6.5 7.0 6.5 6.5 6.5 6.5 6.5 6.5 6.5 6.5 6.5 6.5 6.5 6.5 6.5 6.5 6.5 6.5 7.0 7.3 7.6 7.9 8.1 8.3 8.6 8.9 8.9 9.0 9.1 8.6 6.9 6.3 6.7 7.6 8.9 8.4 8.1 8.4 8.2 8.0 8.2 8.2 8.2 8.9
6.5 6.5 6.5 6.7 6.5 6.5 6.5 6.5 6.5 6.5 6.5 6.5 6.5 6.5 6.5 6.5 6.5 6.7 6.8 7.3 7.7 7.9 8.0 8.2 8.4 8.5 8.7 8.9 8.9 8.8 7.8 7.2 8.4 9.0 8.9 8.9 8.7 8.3 8.3 8.4 8.5 8.3 8.4 8.3
6.5 6.5 6.5 6.5 6.5 6.5 6.5 6.5 6.5 6.5 6.5 6.5 6.5 6.5 6.5 6.5 7.1 7.3 7.5 7.6 7.8 7.9 8.1 8.2 8.4 8.6 8.7 8.8 9.0 9.1 8.0 8.6 9.1 9.1 9.0 8.9 8.9 8.9 8.8 8.8 8.7 8.6 8.6 8.7
6.5 6.5 6.5 6.5 6.5 6.5 6.5 6.5 6.5 6.5 6.5 6.5 6.5 6.5 6.5 6.5 6.6 7.0 7.1 7.4 7.5 7.8 8.0 8.2 8.4 8.6 8.7 8.6 8.6 7.3 7.8 9.2 9.2 9.1 8.8 8.6 8.8 8.7 8.7 8.6 8.5 8.5 8.8 9.5
6.5 6.5 6.5 6.5 6.6 6.6 6.5 6.5 6.5 6.5 6.5 6.5 6.5 6.5 6.5 6.5 6.5 6.5 6.8 7.1 7.5 7.9 8.0 8.2 8.4 8.6 8.5 8.8 7.9 6.8 7.5 9.1 9.2 9.1 8.9 9.1 8.9 8.9 8.7 8.6 8.4 8.4 8.7 9.1
6.5 6.5 6.5 6.5 6.5 6.5 6.5 6.5 6.5 6.5 6.5 6.5 6.5 6.5 6.5 6.5 6.5 6.5 6.9 7.3 7.5 7.7 8.0 8.2 8.4 8.5 8.6 8.1 7.5 8.2 9.1 9.2 9.1 9.1 9.0 8.8 8.8 8.9 8.8 8.6 8.6 8.5 8.9 9.0
6.5 6.5 6.5 6.5 6.5 6.5 6.5 6.5 6.5 6.5 6.5 6.5 6.5 6.5 6.5 6.5 6.8 7.0 7.1 7.4 7.7 7.9 8.1 8.3 8.4 8.5 8.3 8.5 8.3 9.1 9.1 9.1 9.1 9.1 9.0 8.6 8.9 8.9 8.6 8.7 8.6 9.1 8.5 9.2
6.5 6.5 6.5 6.5 6.5 6.5 6.5 6.5 6.5 6.5 6.5 6.5 6.5 6.5 6.6 6.8 6.8 7.2 7.1 7.5 7.7 7.9 8.1 8.3 8.4 8.2 8.0 8.4 8.5 9.2 9.2 9.2 9.3 9.3 8.9 8.5 8.6 8.7 8.5 8.6 8.6 9.1 8.9 8.9
6.6 6.5 6.5 6.5 6.5 6.5 6.5 6.5 6.5 6.5 6.5 6.5 6.5 6.5 6.5 6.5 6.5 6.9 7.2 7.5 7.7 7.9 8.1 8.2 8.1 8.3 8.3 7.1 7.6 9.1 9.2 9.2 9.3 9.3 9.0 8.4 8.5 8.6 8.6 8.8 8.6 8.6 9.1 8.6
6.5 6.5 6.5 6.5 6.5 6.5 6.5 6.5 6.5 6.5 6.5 6.5 6.5 6.5 6.5 6.5 6.6 7.0 7.4 7.6 7.6 7.8 7.9 8.1 7.8 6.0 5.3 5.3 7.4 9.2 9.2 9.3 9.3 9.2 9.0 8.6 8.7 8.8 8.8 8.6 8.5 8.5 8.5 8.7
6.5 6.5 6.5 6.5 6.5 6.5 6.5 6.5 6.5 6.5 6.5 6.5 6.5 6.5 6.7 7.1 7.3 7.2 7.3 7.5 7.5 7.7 8.0 8.1 6.1 4.9 4.1 5.5 8.3 9.0 9.2 9.3 9.4 9.1 9.0 9.2 9.2 9.2 8.7 8.6 8.4 8.5 8.3 8.2
6.5 6.5 6.5 6.5 6.5 6.5 6.5 6.5 6.5 6.5 6.5 6.5 6.5 6.5 6.7 6.6 6.9 7.1 7.3 7.5 7.6 7.8 8.0 6.3 5.0 4.5 4.6 7.2 9.0 9.0 9.2 9.4 9.3 9.2 9.4 9.4 9.4 9.3 8.8 9.0 9.0 8.5 7.8 7.8
6.5 6.5 6.5 6.5 6.5 6.5 6.5 6.5 6.5 6.5 6.5 6.5 6.5 6.5 6.8 7.0 7.4 7.6 7.9 7.7 7.8 8.0 6.3 5.1 5.0 4.6 5.9 8.1 9.1 9.3 9.4 9.3 9.2 9.2 9.3 9.5 9.4 9.3 9.1 8.9 8.7 8.0 8.2 8.1
6.6 6.5 6.5 6.5 6.5 6.5 6.5 6.5 6.5 6.5 6.5 6.5 6.5 6.7 7.0 7.4 7.5 7.4 8.1 8.0 7.8 6.9 5.9 6.0 5.0 6.3 8.5 9.1 9.3 9.3 9.2 9.2 9.2 9.2 9.3 9.5 9.4 9.3 9.0 8.8 8.2 8.2 8.3 8.4
6.5 6.5 6.5 6.5 6.5 6.5 6.5 6.5 7.1 6.7 6.5 6.8 6.9 6.8 6.8 7.1 6.5 6.7 8.1 8.4 8.0 6.4 6.5 5.8 6.7 8.5 9.0 9.2 9.3 9.2 9.0 9.0 9.1 9.3 9.4 9.5 9.5 9.2 8.7 8.3 8.1 8.3 8.4 8.8
6.5 6.5 6.5 6.5 6.5 6.5 6.5 6.8 7.2 6.5 6.5 7.0 7.2 7.1 7.1 6.7 7.1 7.8 8.4 8.5 8.2 6.7 6.0 7.4 8.8 8.9 9.1 9.3 9.3 8.9 8.9 8.9 9.4 9.5 9.3 9.5 9.4 8.6 8.6 8.4 8.5 8.4 7.7 7.8
6.5 6.5 6.5 6.5 6.5 6.5 7.0 6.8 6.5 6.7 7.2 7.3 7.4 7.5 7.4 7.8 7.9 8.1 8.3 8.4 7.6 6.8 8.2 9.0 8.9 8.9 9.2 9.4 9.3 8.8 8.9 9.3 8.9 8.7 8.9 8.9 8.7 8.9 9.3 8.0 7.8 8.0 6.7 6.5
6.5 6.5 6.5 6.5 6.5 6.7 7.2 7.1 7.6 7.7 7.4 7.5 7.5 7.9 7.9 7.8 7.9 8.2 8.2 8.4 8.6 8.6 8.8 9.0 8.9 9.0 9.2 9.3 8.9 8.6 8.0 8.0 8.4 7.6 5.8 7.3 8.8 9.0 8.9 7.6 7.6 7.3 6.5 6.5
6.5 6.9 6.5 6.5 6.6 6.8 7.3 7.7 7.9 8.0 7.7 8.0 8.2 8.1 8.1 7.9 8.1 8.1 8.3 8.4 8.6 8.8 8.8 9.0 9.0 8.8 8.9 9.3 9.2 7.8 5.9 4.5 3.5 5.3 8.2 8.3 8.4 8.3 8.6 8.1 7.1 7.1 6.5 6.5
6.7 6.7 6.5 6.5 6.7 7.1 7.4 7.7 7.8 8.0 8.2 8.2 8.3 8.3 8.2 8.2 8.2 8.3 8.3 8.5 8.6 8.8 8.9 8.5 7.4 6.1 5.7 6.2 6.1 7.7 8.9 9.4 9.3 9.2 9.1 8.0 8.9 8.6 8.5 7.8 6.4 6.5 6.8 5.6
6.9 6.5 6.5 6.5 6.8 6.8 7.1 7.8 8.1 8.0 8.0 8.2 8.2 8.2 8.5 8.5 8.3 8.5 8.4 8.7 8.8 8.8 8.8 7.2 5.5 4.1 4.0 5.9 5.3 7.8 9.7 9.7 9.3 8.8 8.6 7.7 8.5 8.3 8.7 8.0 7.8 5.9 5.7 4.9
Wind_Speed
15 12 14 18 18 20 15 15 10 11 14 18 18 12 18 16 15 15 15 14 14 15 13 14 14 15 14 12 10 10 6 9 7 5 4 3 3 5 5 7 7 2 7 10
15 16 16 17 12 8 11 15 15 16 17 4 17 20 18 17 19 16 15 15 16 13 14 13 13 12 11 11 9 12 12 10 8 6 2 2 3 4 2 4 6 11 8 10
17 17 7 7 8 10 11 14 15 18 15 12 16 16 18 18 17 14 15 14 15 13 13 12 12 12 10 10 13 11 8 8 7 7 3 5 5 7 2 5 5 11 8 7
16 16 9 5 11 10 15 14 13 11 11 13 15 2 14 15 14 12 13 13 13 12 13 12 12 11 14 11 10 9 9 8 7 10 6 7 5 6 4 5 4 7 8 5
15 10 13 8 13 15 16 13 8 14 14 16 19 9 7 10 13 11 12 12 11 12 12 12 12 12 13 9 9 7 8 8 6 6 5 6 7 6 5 4 6 6 10 11
14 4 3 8 11 8 8 13 11 15 13 13 18 4 8 5 10 12 12 11 11 12 12 13 12 11 10 11 8 7 7 6 5 4 6 7 7 5 5 6 5 6 4 7
13 14 9 4 10 10 9 9 9 11 11 7 9 12 10 10 11 11 11 9 11 12 12 11 10 11 10 8 7 6 5 5 2 6 6 6 7 7 7 7 6 7 5 5
10 11 12 7 4 10 10 11 8 15 11 6 1 10 7 11 10 10 10 10 11 11 9 9 11 9 9 9 7 5 6 3 7 7 6 6 7 5 6 6 5 5 5 6
7 6 8 4 3 8 5 6 6 8 11 10 8 12 17 17 12 10 10 10 11 10 10 11 11 8 8 9 7 6 5 7 8 7 6 7 6 7 6 6 6 5 9 11
7 1 3 6 5 4 7 4 6 3 4 5 8 11 7 8 11 10 10 10 10 10 10 10 10 8 10 8 4 3 7 8 8 8 7 7 7 6 5 6 7 7 9 12
7 5 6 5 1 6 5 7 7 7 7 5 4 6 9 9 9 10 9 9 9 9 9 9 9 10 11 6 4 6 7 7 7 5 5 6 6 7 7 7 6 7 11 12
5 5 2 8 5 5 3 8 8 5 12 9 6 5 8 9 9 9 9 9 8 9 9 9 10 10 8 4 4 5 6 7 6 6 5 6 7 7 7 7 7 11 6 12
6 2 6 3 2 3 5 8 8 7 5 8 3 6 9 9 8 9 9 8 8 8 9 8 8 10 5 4 6 6 6 7 6 7 6 8 7 7 7 7 7 10 9 10
3 2 5 2 5 9 3 6 7 5 3 6 10 14 10 8 9 8 8 8 7 7 6 7 9 8 9 7 6 6 6 6 7 7 8 7 6 6 7 7 7 7 11 8
3 2 4 8 6 5 6 6 9 9 8 8 14 14 10 9 10 9 8 7 6 7 4 6 10 12 8 5 5 6 6 7 7 7 8 6 6 6 7 7 7 8 8 8
1 2 3 3 4 5 6 6 8 6 7 7 12 12 10 9 10 8 7 5 5 5 6 11 13 10 7 2 5 5 7 6 7 7 7 8 8 9 8 8 8 9 9 8
2 5 3 4 3 4 2 5 7 8 9 11 11 10 7 9 9 9 7 6 7 8 10 14 10 7 4 0 4 6 6 7 7 7 8 9 9 10 9 10 10 9 8 8
4 5 1 4 3 2 6 2 7 9 8 8 10 9 10 12 12 12 11 10 9 13 13 10 8 5 3 4 3 5 7 7 7 8 9 9 9 10 10 10 10 9 9 9
5 2 2 2 3 3 6 4 7 4 9 7 9 8 11 14 13 12 14 16 16 14 11 9 7 4 2 4 6 6 7 8 8 9 9 10 10 11 10 11 9 9 10 10
4 5 4 2 1 3 9 10 5 1 7 7 6 5 6 10 6 8 12 13 13 12 9 8 5 3 6 7 7 7 7 8 8 8 9 10 10 10 9 10 10 9 11 11
6 6 6 7 3 3 10 8 4 4 5 7 9 10 12 9 10 14 13 13 11 10 9 7 4 8 8 6 5 6 8 7 8 9 10 8 8 10 8 8 9 10 12 12
7 5 5 7 4 3 9 6 2 9 9 10 14 14 15 16 16 14 13 11 11 10 7 5 9 8 7 7 6 9 7 7 9 7 7 9 6 8 7 7 9 10 12 12
4 3 1 4 6 11 12 13 11 11 11 13 13 13 15 16 14 13 12 12 10 8 7 9 8 9 8 9 9 9 9 7 6 7 7 7 7 8 7 6 7 7 9 9
2 2 6 7 9 12 13 12 13 13 13 13 14 14 14 14 13 12 12 10 9 8 9 8 8 9 9 8 8 6 3 6 4 4 5 8 6 7 7 5 4 5 5 6
3 5 7 12 13 12 12 13 12 14 15 15 14 14 14 14 13 12 11 10 9 9 8 10 11 9 8 7 5 3 5 6 9 8 7 7 6 8 7 5 3 3 3 2
3 4 5 6 12 6 13 11 14 14 14 15 15 15 14 12 13 13 11 10 10 8 10 10 10 7 4 4 3 6 8 9 8 8 7 4 6 6 7 5 4 3 6 3
Wind_Direction
210 234 238 241 233 242 277 294 283 163 184 217 242 93 58 32 108 103 111 110 112 98 104 94 84 83 87 86 88 87 92 36 52 45 41 36 304 286 352 36 101 85 30 3
237 221 244 260 276 330 304 302 300 296 290 113 105 89 79 60 37 75 95 102 99 107 106 100 93 91 90 85 91 67 54 46 44 45 31 279 278 308 237 288 74 52 56 14
230 240 176 330 300 288 273 270 279 281 303 310 123 111 96 86 78 73 76 95 106 116 115 113 105 95 94 81 72 69 72 59 45 22 354 302 263 264 356 4 26 1 17 15
250 240 277 259 275 279 284 295 314 312 295 280 282 131 102 97 92 84 86 94 101 115 120 118 114 107 83 75 76 73 57 50 49 25 9 352 343 6 11 20 9 316 358 5
243 239 270 249 268 277 269 288 306 293 284 288 276 110 198 132 105 95 91 94 106 116 116 116 112 104 96 100 84 69 66 53 39 29 355 8 19 1 353 12 330 4 346 9
269 317 280 259 271 263 307 289 279 271 261 262 265 264 146 81 93 110 96 101 109 109 111 103 102 106 105 85 80 71 61 52 32 350 33 30 8 335 336 9 353 359 353 347
222 243 204 234 279 261 231 263 274 260 234 248 20 72 91 89 60 88 114 119 117 112 110 121 130 111 106 103 92 84 58 44 331 34 38 19 6 6 350 10 358 333 351 343
223 196 191 138 256 302 296 236 256 303 311 324 25 134 101 102 103 101 106 114 114 114 125 131 116 112 103 92 80 54 38 345 44 34 16 25 21 9 5 357 351 342 345 343
324 119 94 53 311 271 318 259 330 306 293 277 91 106 137 133 118 111 114 114 115 124 131 118 105 105 107 85 60 23 313 42 38 32 20 30 16 12 357 343 355 352 353 336
341 192 121 119 247 208 278 340 307 53 328 14 113 103 107 86 113 117 109 109 116 122 121 118 109 106 86 80 48 322 276 42 33 28 26 19 8 352 354 356 359 357 345 349
338 260 122 189 262 33 346 33 347 336 305 311 314 83 53 66 72 96 103 115 125 126 124 120 114 98 87 68 17 286 31 36 31 26 21 19 3 359 2 3 355 357 348 345
56 322 309 91 60 359 21 24 355 348 328 325 308 79 69 75 89 103 105 109 115 122 127 118 115 106 92 61 315 19 36 30 21 20 14 30 8 4 2 359 354 354 347 340
6 271 277 190 87 54 33 3 354 334 275 284 356 118 121 107 87 101 109 110 116 123 118 119 120 105 112 72 19 1 39 20 8 16 15 31 9 1 1 355 349 348 346 336
326 17 339 103 164 259 46 24 0 332 296 359 93 135 129 104 108 106 104 112 119 124 125 127 114 111 94 54 4 338 30 27 8 16 20 26 5 353 2 350 342 344 340 330
328 105 52 66 71 51 44 46 44 48 11 60 78 84 81 65 73 78 96 105 116 115 129 107 93 90 85 53 304 16 19 24 13 21 22 13 360 354 2 343 341 345 336 334
332 119 112 81 87 75 75 73 84 45 66 72 117 99 92 111 131 120 106 107 110 104 93 92 93 92 79 30 317 354 37 22 17 23 15 12 360 357 0 346 348 345 337 334
129 157 199 145 31 34 150 44 67 76 42 20 79 93 154 119 77 59 115 97 83 89 86 82 94 86 93 264 353 25 28 37 21 20 12 12 3 357 355 352 347 345 337 335
156 197 144 122 131 38 88 63 63 92 87 93 86 79 72 85 76 58 37 84 87 93 94 96 98 97 124 239 358 41 28 34 31 19 12 5 2 358 355 352 345 343 340 344
229 151 124 101 174 147 156 172 159 175 106 52 112 116 114 111 108 72 61 61 73 87 102 102 111 134 190 46 46 27 33 35 29 16 6 3 3 357 353 353 350 343 353 349
224 272 163 46 167 214 104 145 77 68 130 86 82 98 140 165 155 107 91 87 91 96 105 111 123 175 70 54 42 38 42 35 23 6 0 7 359 350 3 353 359 350 4 354
191 202 209 135 215 81 114 113 158 226 95 77 79 70 55 77 86 104 103 97 101 105 112 131 150 75 69 55 49 62 45 27 14 11 5 353 5 340 19 7 2 10 6 358
178 183 195 152 200 135 122 151 278 102 99 94 84 92 101 107 108 109 108 109 112 115 142 138 86 77 61 39 47 61 40 34 21 6 360 338 23 341 9 27 13 16 8 359
170 77 119 38 87 94 77 95 115 110 107 98 104 114 115 115 117 113 109 116 123 140 105 86 90 79 60 50 41 52 33 11 340 346 319 305 25 346 5 39 21 18 7 359
68 8 118 109 119 111 104 99 99 100 99 110 116 119 119 117 117 113 120 129 108 100 90 97 96 81 68 62 58 72 308 282 265 278 16 2 10 0 6 35 28 20 358 354
16 166 139 103 122 117 111 102 104 105 107 111 112 114 116 120 120 118 118 113 106 99 92 70 70 72 59 53 20 346 327 360 1 26 20 16 5 2 7 42 31 358 341 0
176 136 150 167 150 135 121 119 119 119 117 114 117 114 118 123 119 122 113 111 105 100 93 88 90 83 60 42 336 314 23 24 22 25 355 26 11 9 358 5 358 264 278 266